Grand Island, NE

11:12 AM CST on November 20, 2019 (GMT -0600)
Central Nebraska Regional

Weather History for KGRI - October, 2019

Change the Weather History Date:

Sunday, October 20, 2019

  Actual Average Record
Temperature  
Mean Temperature 53 °F 51 °F  
Max Temperature 61 °F 63 °F 93 °F (1947)
Min Temperature 45 °F 38 °F 12 °F (1916)
Degree Days  
Heating Degree Days 12 14  
Month to date heating degree days 260 222  
Since 1 July heating degree days 272 337  
Cooling Degree Days 0 0  
Month to date cooling degree days 0 10  
Year to date cooling degree days 1153 1033  
Growing Degree Days 4 (Base 50)    
Moisture  
Dew Point 38 °F    
Average Humidity 51    
Maximum Humidity 66    
Minimum Humidity 35    
Precipitation  
Precipitation T in 0.06 in 2.18 in (1904)
Month to date precipitation 1.23 1.31  
Year to date precipitation 36.18 24.31  
Sea Level Pressure  
Sea Level Pressure 29.64 in    
Wind  
Wind Speed 14 mph (South)    
Max Wind Speed 25 mph    
Max Gust Speed 36 mph    
Visibility 10 miles    
Events Rain    
T = Trace of Precipitation, MM = Missing Value Source: NWS Daily Summary

Daily Weather History Graph

Daily Weather History Graph

Search for Another Location

Airport or City:

Astronomy

Oct. 20, 2019 Rise Set
Actual Time 7:49 AM CDT 6:45 PM CDT
Civil Twilight 7:22 AM CDT 7:13 PM CDT
Nautical Twilight 6:50 AM CDT 7:45 PM CDT
Astronomical Twilight 6:18 AM CDT 8:17 PM CDT
Moon 11:54 PM CDT 2:21 PM CDT
Length of Visible Light 11h 51m
Length of Day
10h 55m
Waning Gibbous, 59% of the Moon is Illuminated
Oct 20
Waning Gibbous
Oct 21
Last Quarter
Oct 27
New
Nov 4
First Quarter
Nov 12
Full

Hourly Weather History & Observations

Time (CDT) Temp. Windchill Dew Point Humidity Pressure Visibility Wind Dir Wind Speed Gust Speed Precip Events Conditions
12:53 AM 48.0 °F - 37.0 °F 66% 29.76 in 10.0 mi South 10.4 mph - N/A   Clear
1:53 AM 48.0 °F - 37.0 °F 66% 29.75 in 10.0 mi South 10.4 mph - N/A   Clear
2:53 AM 46.9 °F - 36.0 °F 66% 29.74 in 10.0 mi South 9.2 mph - N/A   Clear
3:53 AM 48.0 °F - 36.0 °F 63% 29.72 in 10.0 mi SSE 11.5 mph - N/A   Clear
4:53 AM 50.0 °F - 35.1 °F 57% 29.69 in 10.0 mi SSE 15.0 mph - N/A   Clear
5:53 AM 50.0 °F - 36.0 °F 59% 29.68 in 10.0 mi SE 16.1 mph 23.0 mph N/A   Clear
6:53 AM 51.1 °F - 37.0 °F 59% 29.67 in 10.0 mi SSE 15.0 mph 23.0 mph N/A   Clear
7:53 AM 51.1 °F - 39.0 °F 63% 29.66 in 10.0 mi SSE 13.8 mph 25.3 mph N/A   Overcast
8:53 AM 52.0 °F - 39.0 °F 61% 29.66 in 10.0 mi SSE 16.1 mph 26.5 mph N/A   Mostly Cloudy
9:53 AM 54.0 °F - 41.0 °F 62% 29.65 in 10.0 mi SSE 17.3 mph 26.5 mph N/A   Clear
10:53 AM 55.0 °F - 43.0 °F 64% 29.66 in 10.0 mi SSE 15.0 mph 25.3 mph N/A   Mostly Cloudy
11:53 AM 55.9 °F - 45.0 °F 67% 29.64 in 10.0 mi SSE 18.4 mph 28.8 mph N/A   Mostly Cloudy
12:53 PM 59.0 °F - 46.0 °F 62% 29.64 in 10.0 mi South 18.4 mph 28.8 mph N/A   Overcast
1:53 PM 60.1 °F - 44.1 °F 55% 29.61 in 10.0 mi South 18.4 mph 32.2 mph N/A   Overcast
2:53 PM 59.0 °F - 45.0 °F 60% 29.58 in 10.0 mi South 18.4 mph 28.8 mph N/A   Overcast
3:53 PM 57.9 °F - 46.0 °F 65% 29.57 in 10.0 mi South 11.5 mph - 0.00 in Rain Light Rain
4:53 PM 59.0 °F - 46.0 °F 62% 29.56 in 10.0 mi South 15.0 mph 21.9 mph 0.00 in   Overcast
5:53 PM 60.1 °F - 46.0 °F 60% 29.57 in 10.0 mi SSW 8.1 mph - N/A   Mostly Cloudy
6:53 PM 57.9 °F - 34.0 °F 41% 29.59 in 10.0 mi WSW 17.3 mph 34.5 mph N/A   Partly Cloudy
7:53 PM 53.1 °F - 26.1 °F 35% 29.60 in 10.0 mi South 8.1 mph - N/A   Clear
8:53 PM 52.0 °F - 27.0 °F 38% 29.58 in 10.0 mi SSW 12.7 mph - N/A   Clear
9:53 PM 52.0 °F - 28.9 °F 41% 29.55 in 10.0 mi WSW 15.0 mph - N/A   Clear
10:53 PM 46.0 °F 41.4 °F 28.9 °F 51% 29.55 in 10.0 mi SSW 9.2 mph - N/A   Clear
11:53 PM 46.0 °F 40.2 °F 32.0 °F 58% 29.52 in 10.0 mi WSW 12.7 mph - N/A   Clear